Regional Weather Roundup
Issued by NWS

Home | Current Version | Previous Version | Graphics & Text | Print | Product List | Glossary On
Versions: 1 2 3 4 5 6 7 8 9 10 11 12 13 14 15 16 17 18 19 20 21 22 23 24 25 26 27 28 29 30 31 32 33 34 35 36 37 38 39 40 41 42 43 44 45 46 47 48 49 50
000
ASUS45 KPSR 221810
RWRAZ

ARIZONA REGIONAL HOURLY WEATHER ROUNDUP
NATIONAL WEATHER SERVICE PHOENIX AZ
1100 AM MST TUE JUL 22 2014

NOTE: FAIR INDICATES FEW OR NO CLOUDS BELOW 12,000 FEET WITH NO
SIGNIFICANT WEATHER AND/OR OBSTRUCTIONS TO VISIBILITY.

AZZ001>003-036-221900-
NORTHWEST ARIZONA

CITY           SKY/WX    TMP DP  RH WIND       PRES   REMARKS
BULLHEAD CITY  SUNNY     99  37  12 SW3       29.96F
KINGMAN        SUNNY     94  37  13 VRB5      30.15F
6HR MIN TEMP:  70; 6HR MAX TEMP:  94;

$$

AZZ004>008-015-016-018-221900-
NORTH CENTRAL ARIZONA

CITY           SKY/WX    TMP DP  RH WIND       PRES   REMARKS
GRAND CANYON   MOSUNNY   86  32  14 VRB5      30.40F
6HR MIN TEMP:  45; 6HR MAX TEMP:  87;

WILLIAMS       MOSUNNY   84  36  17 SE3       30.46F
PRESCOTT       SUNNY     91  29  11 CALM      30.27F
6HR MIN TEMP:  61; 6HR MAX TEMP:  91;

FLAGSTAFF      CLOUDY    82  31  15 NE8       30.44F
6HR MIN TEMP:  49; 6HR MAX TEMP:  82;

PAYSON         CLOUDY    91  37  15 SW7       30.28F
PAGE           SUNNY     93  27   9 VRB5      30.22F
6HR MIN TEMP:  71; 6HR MAX TEMP:  93;

$$

AZZ009>014-017-221900-
NORTHEAST ARIZONA

CITY           SKY/WX    TMP DP  RH WIND       PRES   REMARKS
WINSLOW        PTSUNNY   89  31  12 CALM      30.28F
6HR MIN TEMP:  60; 6HR MAX TEMP:  89;

SAINT JOHNS    PTSUNNY   88  41  19 VRB6      30.33F
6HR MIN TEMP:  70; 6HR MAX TEMP:  88;

WINDOW ROCK    MOSUNNY   89  27  10 MISG      30.41F
6HR MIN TEMP:  52; 6HR MAX TEMP:  90;

SHOW LOW       MOSUNNY   81  36  19 N8        30.39F HAZE
$$

AZZ023-221900-
GREATER PHOENIX AREA

CITY           SKY/WX    TMP DP  RH WIND       PRES   REMARKS
PHOENIX        PTSUNNY  100  47  16 VRB3      29.94F
6HR MIN TEMP:  89; 6HR MAX TEMP: 101;

BUCKEYE          N/A    100  43  14 S3        29.96S
GLENDALE       PTSUNNY  100  48  17 E3        29.96F
LUKE AFB       NOT AVBL
6HR MIN TEMP:  83; 6HR MAX TEMP: 101;

DEER VALLEY    MOSUNNY   98  45  16 SW5       29.97F
6HR MIN TEMP:  81; 6HR MAX TEMP:  98;

SCOTTSDALE     MOSUNNY   97  49  19 VRB3      29.99F
6HR MIN TEMP:  82; 6HR MAX TEMP:  98;

MESA-FALCON    PTSUNNY   95  48  20 VRB5      29.97F
MESA-GATEWAY   PTSUNNY   97  45  16 NW5       29.99F
CHANDLER       PTSUNNY   97  50  20 CALM      29.97S
$$

AZZ027-028-221900-
SOUTHWEST MARICOPA COUNTY AND PINAL COUNTY

CITY           SKY/WX    TMP DP  RH WIND       PRES   REMARKS
CASA GRANDE    PTSUNNY   99  50  19 W3        29.98F
6HR MIN TEMP:  81; 6HR MAX TEMP:  99;

GILA BEND      MOCLDY   104  39  11 VRB1      29.95F
$$

AZZ503-504-507>509-221900-
SOUTHEAST ARIZONA

CITY           SKY/WX    TMP DP  RH WIND       PRES   REMARKS
TUCSON         SUNNY     98  45  16 N8        30.08F
6HR MIN TEMP:  79; 6HR MAX TEMP:  98;

DAVIS-MONTHAN  PTSUNNY   94  46  19 N3        30.06F
6HR MIN TEMP:  76; 6HR MAX TEMP:  94;

RYAN FIELD       N/A     97  48  19 NW10      30.06
NOGALES        MOSUNNY   92  47  21 N6        30.16S
6HR MIN TEMP:  69; 6HR MAX TEMP:  92;

SIERRA VISTA   CLOUDY    82  45  26 E3        30.24S
DOUGLAS        PTSUNNY   87  54  32 CALM      30.19F
6HR MIN TEMP:  68; 6HR MAX TEMP:  87;

SAFFORD        MOSUNNY   96  43  16 VRB3      30.07F
6HR MIN TEMP:  74; 6HR MAX TEMP:  97;

$$

AZZ020-021-025-026-031-221900-
SOUTHWEST ARIZONA

CITY           SKY/WX    TMP DP  RH WIND       PRES   REMARKS
YUMA           NOT AVBL
$$

CAZ031-033-041-043-047-048-061-221900-
SOUTHERN CALIFORNIA

CITY           SKY/WX    TMP DP  RH WIND       PRES   REMARKS
DOWNTOWN L.A.  SUNNY     81  61  50 CALM      30.04S
6HR MIN TEMP:  65; 6HR MAX TEMP:  82;

L.A. AIRPORT   MOSUNNY   75  63  66 W12       30.06S
6HR MIN TEMP:  66; 6HR MAX TEMP:  77;

SAN DIEGO      MOSUNNY   73  62  68 W13       30.07S
6HR MIN TEMP:  69; 6HR MAX TEMP:  74;

BURBANK        SUNNY     80  56  43 CALM      30.06S
6HR MIN TEMP:  64; 6HR MAX TEMP:  80;

ONTARIO        MOSUNNY   80  58  46 CALM      30.05F
6HR MIN TEMP:  63; 6HR MAX TEMP:  81;

RIVERSIDE      SUNNY     81  58  45 NW6       30.05F
6HR MIN TEMP:  64; 6HR MAX TEMP:  81;

PALM SPRINGS   SUNNY    101  40  12 W3        29.94F
6HR MIN TEMP:  75; 6HR MAX TEMP: 101;

EL CENTRO NAS  MOSUNNY  103  40  11 N7        29.89F
6HR MIN TEMP:  73; 6HR MAX TEMP: 103;

IMPERIAL       SUNNY    100  49  17 N9        29.89F
6HR MIN TEMP:  73; 6HR MAX TEMP: 100;

BLYTHE         SUNNY    103  40  11 E7        29.93F
6HR MIN TEMP:  75; 6HR MAX TEMP: 103;

NEEDLES        SUNNY    102  33   9 VRB3      29.97F
6HR MIN TEMP:  80; 6HR MAX TEMP: 102;

$$

NVZ020-UTZ003-221900-
SOUTHERN NEVADA-UTAH

CITY           SKY/WX    TMP DP  RH WIND       PRES   REMARKS
LAS VEGAS      SUNNY     97  29   9 NE5       30.02F
6HR MIN TEMP:  80; 6HR MAX TEMP:  97;

SALT LAKE CITY PTSUNNY   89  33  13 VRB6      30.21F
6HR MIN TEMP:  64; 6HR MAX TEMP:  89;

$$

NMZ009-TXZ055-221900-
NEW MEXICO-WEST TEXAS

CITY           SKY/WX    TMP DP  RH WIND       PRES   REMARKS
ALBUQUERQUE    PTSUNNY   89  49  25 W6        30.29S
6HR MIN TEMP:  77; 6HR MAX TEMP:  91;

EL PASO        MOSUNNY   91  55  29 CALM      30.15F
6HR MIN TEMP:  75; 6HR MAX TEMP:  92;

$$


........................KEY........................
SKY/WX - SKY CONDITION/WEATHER
TMP    - TEMPERATURE IN FAHRENHEIT
DP     - DEW POINT IN FAHRENHEIT
RH     - RELATIVE HUMIDITY IN PERCENT
WIND   - DIRECTION AND SPEED IN MILES PER HOUR (MPH)
VRB    - VARIABLE WIND DIRECTION
PRES   - MEAN SEA LEVEL PRESSURE IN INCHES OF MERCURY
         F - FALLING PRESSURE   R - RISING PRESSURE
         S - STEADY PRESSURE
VSB    - VISIBILITY IN MILES
HX     - HEAT INDEX IN FAHRENHEIT
WCI    - WIND CHILL INDEX IN FAHRENHEIT
TC     - TEMPERATURE IN CELSIUS WHICH IS ALSO KNOWN AS
         TEMPERATURE IN CENTIGRADE
AFB    - AIR FORCE BASE
         LUKE AFB IS LUKE AIR FORCE BASE
         DAVIS-MONTHAN IS DAVIS-MONTHAN AIR FORCE BASE
NAS    - NAVAL AIR STATION
         EL CENTRO NAS IS EL CENTRO NAVAL AIR STATION
N/A    - NOT AVAILABLE


USA.gov is the U.S. government's official web portal to all federal, state and local government web resources and services.